Flag for U.S.A. Weather past 2 weeks in Fort Wayne, Indiana, U.S.A.

42 °F

Passing clouds.

Feels Like: 34 °F
Forecast: 34 / 49 °F
Wind: 16 mph from East

Location: Fort Wayne International Airport

Current Time: Nov 30, 2015 at 8:01:16 PM

Latest Report: Nov 30, 2015 at 6:54 PM

Visibility: 10 mi

Pressure: 30.07 "Hg

Humidity: 76%

Dew point: 35 °F

Location of Fort WayneLocation

Historic Weather in Fort Wayne — Graph


Fort Wayne temperature yesterday

Maximum temperature yesterday: 38 °F (at 1:54 PM)
Minimum temperature yesterday: 30 °F (at 7:54 AM)
Average temperature yesterday: 33 °F

Past Weeks' High & Low Weather Summary

High62 °F (Nov 17, 2:54 PM)96% (Nov 27, 2:54 PM)30.44 "Hg (Nov 27, 2:54 PM)
Low11 °F (Nov 22, 9:54 PM)19% (Nov 20, 2:54 PM)29.62 "Hg (Nov 18, 1:54 PM)
Average41 °F73%30.19 "Hg
* Reported Nov 15 6:54 PM — Nov 30 6:54 PM, Fort Wayne, Weather by CustomWeather, © 2015

Note: Actual official high and low records may vary slightly from our data, if they occured in-between our weather recording intervals... More about our weather records


Fort Wayne weather history for previous 24 hours

Time TempWeatherWind HumidityBarometerVisibility
6:54 PM
Mon, Nov 30
42 °FPassing clouds.16 mph76%30.07 "Hg10 mi
5:54 PM44 °FOvercast.17 mph68%30.08 "Hg10 mi
4:54 PM45 °FPartly sunny.15 mph58%30.08 "Hg10 mi
3:54 PM46 °FPartly sunny.14 mph58%30.09 "Hg10 mi
2:54 PM45 °FPartly sunny.16 mph58%30.10 "Hg10 mi
1:54 PM44 °FPartly sunny.17 mph60%30.13 "Hg10 mi
12:54 PM43 °FPartly sunny.13 mph62%30.15 "Hg10 mi
11:54 AM42 °FBroken clouds.14 mph62%30.19 "Hg10 mi
10:54 AM39 °FScattered clouds.13 mph73%30.20 "Hg10 mi
9:54 AM36 °FPartly sunny.13 mph82%30.21 "Hg10 mi
8:54 AM33 °FBroken clouds.16 mph88%30.21 "Hg7 mi
7:54 AM32 °FIce fog.14 mph88%30.22 "Hg4 mi
6:54 AM32 °FIce fog.13 mph88%30.22 "Hg5 mi
5:54 AM31 °FIce fog.9 mph92%30.23 "Hg5 mi
4:54 AM30 °FIce fog.10 mph92%30.23 "Hg6 mi
3:54 AM31 °FPassing clouds.10 mph89%30.25 "Hg7 mi
2:54 AM30 °FPassing clouds.8 mph92%30.27 "Hg7 mi
1:54 AM30 °FPassing clouds.8 mph89%30.28 "Hg8 mi
12:54 AM31 °FPassing clouds.9 mph89%30.29 "Hg10 mi
11:54 PM
Sun, Nov 29
31 °FPassing clouds.9 mph89%30.32 "Hg10 mi
10:54 PM32 °FPassing clouds.12 mph85%30.32 "Hg10 mi
9:54 PM32 °FPassing clouds.8 mph85%30.32 "Hg10 mi
8:54 PM32 °FHigh level clouds.7 mph85%30.36 "Hg10 mi
Weather by CustomWeather, © 2015

See weather overviewHow to use our weather pages